Time,TemperatureF,DewpointF,PressureIn,WindDirection,WindDirectionDegrees,WindSpeedMPH,WindSpeedGustMPH,Humidity,HourlyPrecipIn,Conditions,Clouds,dailyrainin,SoftwareType,DateUTC
2013-04-21 00:03:00,30.0,26.0,-100.00,WNW,293,0.0,0.0,86,0.00,,,0.00,,2013-04-21 04:03:00,
2013-04-21 00:12:00,30.0,27.0,-100.00,WNW,293,0.0,0.0,88,0.00,,,0.00,,2013-04-21 04:12:00,
2013-04-21 00:23:00,30.0,27.0,-100.00,WNW,293,0.0,0.0,88,0.00,,,0.00,,2013-04-21 04:23:00,
2013-04-21 00:33:00,29.0,26.0,-100.00,WNW,293,0.0,0.0,89,0.00,,,0.00,,2013-04-21 04:33:00,
2013-04-21 00:42:00,29.0,26.0,-100.00,WNW,293,0.0,0.0,89,0.00,,,0.00,,2013-04-21 04:42:00,
2013-04-21 00:53:00,29.0,26.0,-100.00,WNW,293,0.0,0.0,90,0.00,,,0.00,,2013-04-21 04:53:00,
2013-04-21 01:02:00,29.0,27.0,-100.00,WNW,293,0.0,0.0,91,0.00,,,0.00,,2013-04-21 05:02:00,
2013-04-21 01:12:00,29.0,27.0,-100.00,WNW,293,0.0,0.0,91,0.00,,,0.00,,2013-04-21 05:12:00,
2013-04-21 01:22:00,28.0,26.0,-100.00,WNW,293,0.0,0.0,92,0.00,,,0.00,,2013-04-21 05:22:00,
2013-04-21 01:32:00,28.0,26.0,-100.00,WNW,293,0.0,0.0,93,0.00,,,0.00,,2013-04-21 05:32:00,
2013-04-21 01:42:00,28.0,26.0,-100.00,WNW,293,0.0,0.0,93,0.00,,,0.00,,2013-04-21 05:42:00,
2013-04-21 01:52:00,28.0,27.0,-100.00,WNW,293,0.0,0.0,94,0.00,,,0.00,,2013-04-21 05:52:00,
2013-04-21 02:01:00,28.0,27.0,-100.00,WNW,293,0.0,0.0,94,0.00,,,0.00,,2013-04-21 06:01:00,
2013-04-21 02:12:00,27.0,26.0,-100.00,WNW,293,0.0,0.0,94,0.00,,,0.00,,2013-04-21 06:12:00,
2013-04-21 02:22:00,27.0,26.0,-100.00,WNW,293,0.0,0.0,94,0.00,,,0.00,,2013-04-21 06:22:00,
2013-04-21 02:32:00,27.0,26.0,-100.00,WNW,293,0.0,0.0,95,0.00,,,0.00,,2013-04-21 06:32:00,
2013-04-21 02:42:00,27.0,26.0,-100.00,WNW,293,0.0,0.0,95,0.00,,,0.00,,2013-04-21 06:42:00,
2013-04-21 02:52:00,27.0,26.0,-100.00,WNW,293,0.0,0.0,96,0.00,,,0.00,,2013-04-21 06:52:00,
2013-04-21 03:01:00,27.0,26.0,-100.00,WNW,293,0.0,0.0,96,0.00,,,0.00,,2013-04-21 07:01:00,
2013-04-21 03:12:00,26.0,25.0,-100.00,WNW,293,0.0,0.0,96,0.00,,,0.00,,2013-04-21 07:12:00,
2013-04-21 03:21:00,26.0,25.0,-100.00,WNW,293,0.0,0.0,96,0.00,,,0.00,,2013-04-21 07:21:00,
2013-04-21 03:32:00,26.0,25.0,-100.00,WNW,293,0.0,0.0,97,0.00,,,0.00,,2013-04-21 07:32:00,
2013-04-21 03:42:00,26.0,25.0,-100.00,WNW,293,0.0,0.0,97,0.00,,,0.00,,2013-04-21 07:42:00,
2013-04-21 03:52:00,26.0,26.0,-100.00,WNW,293,0.0,0.0,98,0.00,,,0.00,,2013-04-21 07:52:00,
2013-04-21 04:01:00,26.0,26.0,-100.00,WNW,293,0.0,0.0,98,0.00,,,0.00,,2013-04-21 08:01:00,
2013-04-21 04:12:00,26.0,26.0,-100.00,WNW,293,0.0,0.0,98,0.00,,,0.00,,2013-04-21 08:12:00,
2013-04-21 04:21:00,26.0,26.0,-100.00,WNW,293,0.0,0.0,98,0.00,,,0.00,,2013-04-21 08:21:00,
2013-04-21 04:32:00,26.0,26.0,-100.00,WNW,293,0.0,0.0,99,0.00,,,0.00,,2013-04-21 08:32:00,
2013-04-21 04:42:00,26.0,26.0,-100.00,WNW,293,0.0,0.0,99,0.00,,,0.00,,2013-04-21 08:42:00,
2013-04-21 04:52:00,26.0,26.0,-100.00,WNW,293,0.0,0.0,99,0.00,,,0.00,,2013-04-21 08:52:00,
2013-04-21 05:02:00,25.0,25.0,-100.00,WNW,293,0.0,0.0,99,0.00,,,0.00,,2013-04-21 09:02:00,
2013-04-21 05:12:00,25.0,25.0,-100.00,WNW,293,0.0,0.0,100,0.00,,,0.00,,2013-04-21 09:12:00,
2013-04-21 05:21:00,25.0,25.0,-100.00,WNW,293,0.0,0.0,100,0.00,,,0.00,,2013-04-21 09:21:00,
2013-04-21 05:32:00,25.0,25.0,-100.00,WNW,293,0.0,0.0,100,0.00,,,0.00,,2013-04-21 09:32:00,
2013-04-21 05:43:00,25.0,25.0,-100.00,WNW,293,0.0,0.0,100,0.00,,,0.00,,2013-04-21 09:43:00,
2013-04-21 05:53:00,25.0,25.0,-100.00,WNW,293,0.0,0.0,100,0.00,,,0.00,,2013-04-21 09:53:00,
2013-04-21 06:03:00,25.0,25.0,-100.00,WNW,293,0.0,0.0,100,0.00,,,0.00,,2013-04-21 10:03:00,
2013-04-21 06:12:00,25.0,25.0,-100.00,WNW,293,0.0,0.0,100,0.00,,,0.00,,2013-04-21 10:12:00,
2013-04-21 06:22:00,25.0,25.0,-100.00,WNW,293,0.0,0.0,100,0.00,,,0.00,,2013-04-21 10:22:00,
2013-04-21 06:32:00,25.0,25.0,-100.00,WNW,293,0.0,0.0,100,0.00,,,0.00,,2013-04-21 10:32:00,
2013-04-21 06:42:00,25.0,25.0,-100.00,WNW,293,0.0,0.0,100,0.00,,,0.00,,2013-04-21 10:42:00,
2013-04-21 06:52:00,25.0,25.0,-100.00,WNW,293,0.0,0.0,100,0.00,,,0.00,,2013-04-21 10:52:00,
2013-04-21 07:02:00,25.0,25.0,-100.00,WNW,293,0.0,0.0,100,0.00,,,0.00,,2013-04-21 11:02:00,
2013-04-21 07:12:00,25.0,25.0,-100.00,WNW,293,0.0,0.0,100,0.00,,,0.00,,2013-04-21 11:12:00,
2013-04-21 07:22:00,24.0,24.0,-100.00,WNW,293,0.0,0.0,100,0.00,,,0.00,,2013-04-21 11:22:00,
2013-04-21 07:34:00,24.0,24.0,-100.00,WNW,293,0.0,0.0,100,0.00,,,0.00,,2013-04-21 11:34:00,
2013-04-21 07:42:00,24.0,24.0,-100.00,WNW,293,0.0,0.0,100,0.00,,,0.00,,2013-04-21 11:42:00,
2013-04-21 07:52:00,24.0,24.0,-100.00,WNW,293,0.0,0.0,100,0.00,,,0.00,,2013-04-21 11:52:00,
2013-04-21 08:02:00,26.0,26.0,-100.00,WNW,293,0.0,0.0,100,0.00,,,0.00,,2013-04-21 12:02:00,
2013-04-21 08:12:00,29.0,29.0,-100.00,WNW,293,0.0,0.0,100,0.00,,,0.00,,2013-04-21 12:12:00,
2013-04-21 08:22:00,29.0,29.0,-100.00,WNW,293,0.0,0.0,100,0.00,,,0.00,,2013-04-21 12:22:00,
2013-04-21 08:32:00,30.0,30.0,-100.00,WNW,293,0.0,0.0,100,0.00,,,0.00,,2013-04-21 12:32:00,
2013-04-21 08:42:00,30.0,30.0,-100.00,WNW,293,0.0,0.0,100,0.00,,,0.00,,2013-04-21 12:42:00,
2013-04-21 08:52:00,31.0,30.0,-100.00,WNW,293,0.0,0.0,95,0.00,,,0.00,,2013-04-21 12:52:00,
2013-04-21 09:01:00,33.0,31.0,-100.00,WNW,293,0.0,0.0,91,0.00,,,0.00,,2013-04-21 13:01:00,
2013-04-21 09:12:00,34.0,29.0,-100.00,East,90,0.0,5.0,82,0.00,,,0.00,,2013-04-21 13:12:00,
2013-04-21 09:21:00,34.0,29.0,-100.00,East,90,0.0,5.0,82,0.00,,,0.00,,2013-04-21 13:21:00,
2013-04-21 09:32:00,35.0,27.0,-100.00,East,90,0.0,6.0,73,0.00,,,0.00,,2013-04-21 13:32:00,
2013-04-21 09:42:00,35.0,27.0,-100.00,East,90,0.0,6.0,73,0.00,,,0.00,,2013-04-21 13:42:00,
2013-04-21 09:52:00,36.0,28.0,-100.00,SE,135,0.0,3.0,71,0.00,,,0.00,,2013-04-21 13:52:00,
2013-04-21 10:02:00,37.0,27.0,-100.00,East,90,1.0,5.0,66,0.00,,,0.00,,2013-04-21 14:02:00,
2013-04-21 10:11:00,38.0,26.0,-100.00,SE,135,2.0,7.0,61,0.00,,,0.00,,2013-04-21 14:11:00,
2013-04-21 10:21:00,38.0,26.0,-100.00,SE,135,2.0,7.0,61,0.00,,,0.00,,2013-04-21 14:21:00,
2013-04-21 10:32:00,38.0,25.0,-100.00,ESE,113,3.0,6.0,60,0.00,,,0.00,,2013-04-21 14:32:00,
2013-04-21 10:42:00,38.0,25.0,-100.00,ESE,113,3.0,6.0,60,0.00,,,0.00,,2013-04-21 14:42:00,
2013-04-21 10:52:00,38.0,24.0,-100.00,SSE,158,1.0,5.0,57,0.00,,,0.00,,2013-04-21 14:52:00,
2013-04-21 11:02:00,39.0,24.0,-100.00,ESE,113,5.0,7.0,54,0.00,,,0.00,,2013-04-21 15:02:00,
2013-04-21 11:11:00,39.0,24.0,-100.00,ESE,113,5.0,7.0,54,0.00,,,0.00,,2013-04-21 15:11:00,
2013-04-21 11:22:00,39.0,24.0,-100.00,East,90,2.0,6.0,54,0.00,,,0.00,,2013-04-21 15:22:00,
2013-04-21 11:33:00,40.0,24.0,-100.00,ESE,113,3.0,5.0,53,0.00,,,0.00,,2013-04-21 15:33:00,
2013-04-21 11:43:00,40.0,24.0,-100.00,ESE,113,3.0,5.0,53,0.00,,,0.00,,2013-04-21 15:43:00,
2013-04-21 11:53:00,41.0,24.0,-100.00,East,90,9.0,9.0,51,0.00,,,0.00,,2013-04-21 15:53:00,
2013-04-21 12:03:00,41.0,24.0,-100.00,East,90,5.0,9.0,51,0.00,,,0.00,,2013-04-21 16:03:00,
2013-04-21 12:12:00,41.0,24.0,-100.00,ENE,68,6.0,8.0,51,0.00,,,0.00,,2013-04-21 16:12:00,
2013-04-21 12:23:00,41.0,24.0,-100.00,ENE,68,6.0,8.0,51,0.00,,,0.00,,2013-04-21 16:23:00,
2013-04-21 12:33:00,43.0,24.0,-100.00,SE,135,6.0,10.0,47,0.00,,,0.00,,2013-04-21 16:33:00,
2013-04-21 12:42:00,43.0,24.0,-100.00,SE,135,6.0,10.0,47,0.00,,,0.00,,2013-04-21 16:42:00,
2013-04-21 12:53:00,43.0,24.0,-100.00,East,90,3.0,6.0,47,0.00,,,0.00,,2013-04-21 16:53:00,
2013-04-21 13:02:00,44.0,24.0,-100.00,South,180,5.0,5.0,45,0.00,,,0.00,,2013-04-21 17:02:00,
2013-04-21 13:12:00,44.0,26.0,-100.00,SE,135,5.0,10.0,48,0.00,,,0.00,,2013-04-21 17:12:00,
2013-04-21 13:23:00,44.0,26.0,-100.00,SE,135,5.0,10.0,48,0.00,,,0.00,,2013-04-21 17:23:00,
2013-04-21 13:32:00,44.0,25.0,-100.00,ESE,113,3.0,6.0,46,0.00,,,0.00,,2013-04-21 17:32:00,
2013-04-21 13:42:00,44.0,25.0,-100.00,ESE,113,3.0,6.0,46,0.00,,,0.00,,2013-04-21 17:42:00,
2013-04-21 13:52:00,45.0,25.0,-100.00,South,180,8.0,10.0,46,0.00,,,0.00,,2013-04-21 17:52:00,
2013-04-21 14:02:00,45.0,25.0,-100.00,ESE,113,6.0,7.0,45,0.00,,,0.00,,2013-04-21 18:02:00,
2013-04-21 14:11:00,45.0,25.0,-100.00,ESE,113,6.0,7.0,45,0.00,,,0.00,,2013-04-21 18:11:00,
2013-04-21 14:22:00,46.0,26.0,-100.00,SE,135,6.0,7.0,46,0.00,,,0.00,,2013-04-21 18:22:00,
2013-04-21 14:32:00,46.0,26.0,-100.00,East,90,6.0,8.0,46,0.00,,,0.00,,2013-04-21 18:32:00,
2013-04-21 14:42:00,46.0,26.0,-100.00,East,90,6.0,8.0,46,0.00,,,0.00,,2013-04-21 18:42:00,
2013-04-21 14:52:00,47.0,27.0,-100.00,East,90,2.0,7.0,45,0.00,,,0.00,,2013-04-21 18:52:00,
2013-04-21 15:02:00,47.0,26.0,-100.00,SSE,158,6.0,7.0,44,0.00,,,0.00,,2013-04-21 19:02:00,
2013-04-21 15:12:00,47.0,26.0,-100.00,SSE,158,6.0,7.0,44,0.00,,,0.00,,2013-04-21 19:12:00,
2013-04-21 15:22:00,47.0,26.0,-100.00,East,90,2.0,6.0,44,0.00,,,0.00,,2013-04-21 19:22:00,
2013-04-21 15:32:00,47.0,26.0,-100.00,SE,135,3.0,7.0,43,0.00,,,0.00,,2013-04-21 19:32:00,
2013-04-21 15:42:00,47.0,26.0,-100.00,SE,135,3.0,7.0,43,0.00,,,0.00,,2013-04-21 19:42:00,
2013-04-21 15:52:00,48.0,26.0,-100.00,East,90,6.0,8.0,42,0.00,,,0.00,,2013-04-21 19:52:00,
2013-04-21 16:02:00,47.0,25.0,-100.00,East,90,7.0,8.0,42,0.00,,,0.00,,2013-04-21 20:02:00,
2013-04-21 16:11:00,48.0,25.0,-100.00,East,90,5.0,8.0,41,0.00,,,0.00,,2013-04-21 20:11:00,
2013-04-21 16:22:00,48.0,25.0,-100.00,East,90,5.0,8.0,41,0.00,,,0.00,,2013-04-21 20:22:00,
2013-04-21 16:32:00,48.0,25.0,-100.00,East,90,5.0,6.0,40,0.00,,,0.00,,2013-04-21 20:32:00,
2013-04-21 16:42:00,48.0,25.0,-100.00,East,90,5.0,6.0,40,0.00,,,0.00,,2013-04-21 20:42:00,
2013-04-21 16:52:00,48.0,25.0,-100.00,East,90,2.0,6.0,41,0.00,,,0.00,,2013-04-21 20:52:00,
2013-04-21 17:02:00,48.0,25.0,-100.00,East,90,5.0,8.0,40,0.00,,,0.00,,2013-04-21 21:02:00,
2013-04-21 17:12:00,48.0,26.0,-100.00,East,90,5.0,6.0,42,0.00,,,0.00,,2013-04-21 21:12:00,
2013-04-21 17:21:00,48.0,26.0,-100.00,East,90,5.0,6.0,42,0.00,,,0.00,,2013-04-21 21:21:00,
2013-04-21 17:33:00,49.0,26.0,-100.00,East,90,5.0,6.0,41,0.00,,,0.00,,2013-04-21 21:33:00,
2013-04-21 17:43:00,49.0,26.0,-100.00,East,90,5.0,6.0,41,0.00,,,0.00,,2013-04-21 21:43:00,
2013-04-21 17:53:00,48.0,25.0,-100.00,SE,135,6.0,9.0,41,0.00,,,0.00,,2013-04-21 21:53:00,
2013-04-21 18:02:00,48.0,25.0,-100.00,East,90,6.0,7.0,41,0.00,,,0.00,,2013-04-21 22:02:00,
2013-04-21 18:12:00,48.0,26.0,-100.00,ESE,113,5.0,7.0,42,0.00,,,0.00,,2013-04-21 22:12:00,
2013-04-21 18:22:00,48.0,26.0,-100.00,ESE,113,5.0,7.0,42,0.00,,,0.00,,2013-04-21 22:22:00,
2013-04-21 18:33:00,48.0,26.0,-100.00,ESE,113,1.0,6.0,42,0.00,,,0.00,,2013-04-21 22:33:00,
2013-04-21 18:43:00,48.0,26.0,-100.00,ESE,113,1.0,6.0,42,0.00,,,0.00,,2013-04-21 22:43:00,
2013-04-21 18:52:00,48.0,26.0,-100.00,East,90,2.0,6.0,42,0.00,,,0.00,,2013-04-21 22:52:00,
2013-04-21 19:02:00,47.0,25.0,-100.00,East,90,3.0,8.0,42,0.00,,,0.00,,2013-04-21 23:02:00,
2013-04-21 19:12:00,47.0,25.0,-100.00,East,90,3.0,8.0,42,0.00,,,0.00,,2013-04-21 23:12:00,
2013-04-21 19:22:00,46.0,25.0,-100.00,East,90,5.0,6.0,43,0.00,,,0.00,,2013-04-21 23:22:00,
2013-04-21 19:32:00,46.0,25.0,-100.00,ESE,113,0.0,5.0,44,0.00,,,0.00,,2013-04-21 23:32:00,
2013-04-21 19:42:00,46.0,25.0,-100.00,ESE,113,0.0,5.0,44,0.00,,,0.00,,2013-04-21 23:42:00,
2013-04-21 19:52:00,45.0,25.0,-100.00,ESE,113,6.0,8.0,46,0.00,,,0.00,,2013-04-21 23:52:00,
2013-04-21 20:01:00,45.0,26.0,-100.00,SE,135,1.0,0.0,47,0.00,,,0.00,,2013-04-22 00:01:00,
2013-04-21 20:11:00,45.0,26.0,-100.00,SE,135,1.0,0.0,47,0.00,,,0.00,,2013-04-22 00:11:00,
2013-04-21 20:22:00,44.0,25.0,-100.00,SE,135,5.0,12.0,47,0.00,,,0.00,,2013-04-22 00:22:00,
2013-04-21 20:32:00,44.0,25.0,-100.00,ESE,113,3.0,8.0,47,0.00,,,0.00,,2013-04-22 00:32:00,
2013-04-21 20:42:00,44.0,25.0,-100.00,ESE,113,3.0,8.0,47,0.00,,,0.00,,2013-04-22 00:42:00,
2013-04-21 20:51:00,42.0,25.0,-100.00,East,90,6.0,10.0,50,0.00,,,0.00,,2013-04-22 00:51:00,
2013-04-21 21:01:00,42.0,26.0,-100.00,East,90,2.0,7.0,52,0.00,,,0.00,,2013-04-22 01:01:00,
2013-04-21 21:12:00,42.0,26.0,-100.00,East,90,2.0,7.0,52,0.00,,,0.00,,2013-04-22 01:12:00,
2013-04-21 21:21:00,41.0,24.0,-100.00,ESE,113,6.0,7.0,51,0.00,,,0.00,,2013-04-22 01:21:00,
2013-04-21 21:32:00,41.0,24.0,-100.00,East,90,2.0,3.0,51,0.00,,,0.00,,2013-04-22 01:32:00,
2013-04-21 21:42:00,41.0,24.0,-100.00,East,90,2.0,3.0,51,0.00,,,0.00,,2013-04-22 01:42:00,
2013-04-21 21:52:00,40.0,22.0,-100.00,East,90,0.0,0.0,49,0.00,,,0.00,,2013-04-22 01:52:00,
2013-04-21 22:02:00,40.0,23.0,-100.00,East,90,1.0,9.0,50,0.00,,,0.00,,2013-04-22 02:02:00,
2013-04-21 22:11:00,39.0,22.0,-100.00,East,90,0.0,0.0,51,0.00,,,0.00,,2013-04-22 02:11:00,
2013-04-21 22:21:00,39.0,22.0,-100.00,East,90,0.0,0.0,51,0.00,,,0.00,,2013-04-22 02:21:00,
2013-04-21 22:32:00,39.0,23.0,-100.00,ESE,113,0.0,0.0,53,0.00,,,0.00,,2013-04-22 02:32:00,
2013-04-21 22:42:00,39.0,23.0,-100.00,ESE,113,0.0,0.0,53,0.00,,,0.00,,2013-04-22 02:42:00,
2013-04-21 22:52:00,39.0,24.0,-100.00,ESE,113,1.0,6.0,54,0.00,,,0.00,,2013-04-22 02:52:00,
2013-04-21 23:02:00,39.0,25.0,-100.00,East,90,1.0,10.0,56,0.00,,,0.00,,2013-04-22 03:02:00,
2013-04-21 23:11:00,39.0,25.0,-100.00,East,90,1.0,10.0,56,0.00,,,0.00,,2013-04-22 03:11:00,
2013-04-21 23:22:00,38.0,25.0,-100.00,East,90,2.0,3.0,59,0.00,,,0.00,,2013-04-22 03:22:00,
2013-04-21 23:33:00,38.0,25.0,-100.00,East,90,1.0,3.0,60,0.00,,,0.00,,2013-04-22 03:33:00,
2013-04-21 23:43:00,38.0,25.0,-100.00,East,90,1.0,3.0,60,0.00,,,0.00,,2013-04-22 03:43:00,
2013-04-21 23:53:00,38.0,26.0,-100.00,East,90,2.0,3.0,62,0.00,,,0.00,,2013-04-22 03:53:00,